2015-049G (40905 NORAD) Tracking and Keplerian Element Data

This shows tracking and keplerian element data for the satellite.

Feedback or suggestion? Click here.




ElementValue
Catalog40905
Name2015-049G
Epoch Orbit25038
Epoch Day92.17067339
Epoch Year2020
RAAN91.7109
Inclination97.4839
Eccentricity0.0014018
Argument of Perigee290.6806
Mean Anonmoly138.0457
Mean Motion15.14499394
Decay Rate3.42E-06
L11 40905U 15049G 20092.17067339 .00000342 00000-0 22111-4 0 9996
L22 40905 97.4839 91.7109 0014018 290.6806 138.0457 15.14499394250387

Live tracking and technical data element details for 2015-049G (NORAD 40905). 2015-049G can be tracked NOW for your location showing map with azimuth and elevation plus other details from your city location.

Track the satellite on the map from your city or location and see movement details for azimuth, elevation, latitude, longitude, range, height, and movement on the map or in text.







IsCatalogInMostPopularTable: catalog: 40905, numindb: 365
Update: records affected: 1



GetName: 40905 2015-049G

Hit Count: updated at: Thu, 02 Apr 2020 04:14:38 GMT